{"data":{"norad_id":58672,"intl_designator":"2023-211F","name":"STARLINK-31104","alt_names":[],"object_type":"PAYLOAD","status":"ACTIVE","operator":null,"country":"US","launch_date":"2023-12-29","launch_site_code":"AFETR","launch_vehicle":null,"mission":null,"orbit_class":"UNKNOWN","rcs_meters":null,"size_class":null,"mass_kg":null,"dimensions":null,"purposes":["comms"],"wikipedia_slug":null,"has_3d_model":false,"image_url":null,"decayed_at":null,"tle_current":{"epoch":"2026-09-20T15:08:20.136768Z","epoch_age_seconds":138521,"freshness":"FRESH","line1":"1 58672U 23211F   26263.63078862  .00083055  00000+0  59600-3 0  9999","line2":"2 58672  42.9852  20.0860 0028252 346.3265  13.6835 15.72129055154063","mean_motion":15.72129055,"eccentricity":0.0028252,"inclination_deg":42.9852,"raan_deg":20.086,"arg_perigee_deg":346.3265,"mean_anomaly_deg":13.6835,"bstar":0.000596,"rev_number":15406,"period_min":91.595533803044,"perigee_km":333.79693826792,"apogee_km":371.82949938438,"semimajor_km":6730.9502188262,"source":"CELESTRAK","updated_at":"2026-09-21T09:00:33.942791Z"}}}